KD5UIG Weather Reports


Display with metric or nautical units.
time (UTC)temp
F
wind
direction
speed
MPH
gust
MPH
rain 1hr
in
rain 24hr
in
rain mn
in
humidity
%
barometer
mb
20260510040557 76 121 1.0 6.0 0.00 0.00 0.00 69 1008.5
20260510040057 76 0 0.0 5.0 0.00 0.00 0.00 69 1008.5
20260510035555 76 161 1.0 5.0 0.00 0.00 0.00 69 1008.5
20260510035057 76 321 0.0 4.0 0.00 0.00 0.00 69 1008.6
20260510034557 76 0 0.0 4.0 0.00 0.00 0.00 68 1008.6
20260510034055 76 0 0.0 4.0 0.00 0.00 0.00 68 1008.7
20260510033554 76 86 0.0 4.0 0.00 0.00 0.00 68 1008.9
20260510033112 76 84 1.0 6.0 0.00 0.00 0.00 68 1008.9
20260510032555 76 107 0.0 6.0 0.00 0.00 0.00 68 1008.8
20260510032055 76 0 0.0 4.0 0.00 0.00 0.00 67 1008.8
20260510031558 77 0 0.0 4.0 0.00 0.00 0.00 66 1008.9
20260510031056 77 0 0.0 3.0 0.00 0.00 0.00 66 1008.9
20260510030555 77 0 0.0 3.0 0.00 0.00 0.00 66 1008.8
20260510030104 77 96 0.0 2.0 0.00 0.00 0.00 65 1009.0
20260510025555 78 0 0.0 2.0 0.00 0.00 0.00 65 1009.1
20260510025055 78 84 0.0 3.0 0.00 0.00 0.00 64 1009.1
20260510024604 78 0 0.0 3.0 0.00 0.00 0.00 64 1009.1
20260510024055 78 71 0.0 4.0 0.00 0.00 0.00 64 1009.0
20260510023554 78 82 0.0 4.0 0.00 0.00 0.00 63 1009.0
20260510023054 78 85 1.0 4.0 0.00 0.00 0.00 63 1009.0
20260510022556 79 100 1.0 5.0 0.00 0.00 0.00 63 1009.0
20260510022055 79 0 1.0 5.0 0.00 0.00 0.00 63 1008.9
20260510021559 79 86 1.0 6.0 0.00 0.00 0.00 62 1008.8
20260510021054 79 0 1.0 6.0 0.00 0.00 0.00 62 1008.8
20260510020555 80 74 1.0 4.0 0.00 0.00 0.00 62 1008.8
20260510015556 80 84 1.0 4.0 0.00 0.00 0.00 63 1008.7
20260510015055 80 58 1.0 4.0 0.00 0.00 0.00 63 1008.7
20260510014600 81 0 1.0 6.0 0.00 0.00 0.00 63 1008.8
20260510014055 81 95 1.0 6.0 0.00 0.00 0.00 63 1008.7
20260510013555 81 0 1.0 7.0 0.00 0.00 0.00 62 1008.7
20260510013100 82 109 1.0 7.0 0.00 0.00 0.00 62 1008.5
20260510012556 82 93 1.0 6.0 0.00 0.00 0.00 62 1008.5
20260510012055 82 34 1.0 6.0 0.00 0.00 0.00 61 1008.3
20260510011557 83 96 2.0 5.0 0.00 0.00 0.00 61 1008.2
20260510011054 83 96 2.0 8.0 0.00 0.00 0.00 60 1008.2
20260510010554 84 85 1.0 8.0 0.00 0.00 0.00 60 1008.0
20260510010059 84 86 1.0 7.0 0.00 0.00 0.00 59 1008.0
20260510005555 85 63 2.0 7.0 0.00 0.00 0.00 58 1007.9
20260510005054 85 78 2.0 9.0 0.00 0.00 0.00 58 1008.0
20260510004602 86 92 3.0 9.0 0.00 0.00 0.00 57 1007.8
20260510004055 87 78 2.0 9.0 0.00 0.00 0.00 56 1007.7
20260510003555 87 60 1.0 7.0 0.00 0.00 0.00 55 1007.8
20260510003103 88 107 0.0 4.0 0.00 0.00 0.00 52 1007.7
20260510002556 88 97 1.0 3.0 0.00 0.00 0.00 50 1007.7
20260510002054 88 158 1.0 3.0 0.00 0.00 0.00 49 1007.7
20260510001600 89 0 0.0 6.0 0.00 0.00 0.00 48 1007.7
20260510001055 89 0 0.0 6.0 0.00 0.00 0.00 48 1007.8
20260510000554 89 90 1.0 6.0 0.00 0.00 0.00 46 1007.8
20260510000104 89 130 0.0 3.0 0.00 0.00 0.00 47 1007.9
20260509235557 90 0 0.0 3.0 0.00 0.00 0.00 46 1007.9
20260509235054 90 182 0.0 3.0 0.00 0.00 0.00 47 1007.9
20260509234601 90 190 1.0 3.0 0.00 0.00 0.00 47 1008.1
20260509234055 90 0 0.0 2.0 0.00 0.00 0.00 46 1008.0
20260509233554 90 194 0.0 6.0 0.00 0.00 0.00 47 1008.0
20260509233101 90 103 0.0 7.0 0.00 0.00 0.00 46 1008.1
20260509232555 90 60 1.0 7.0 0.00 0.00 0.00 44 1008.1
20260509232055 90 0 1.0 7.0 0.00 0.00 0.00 46 1008.1
20260509231601 90 70 1.0 7.0 0.00 0.00 0.00 44 1008.1
20260509231054 90 59 2.0 8.0 0.00 0.00 0.00 45 1008.1
20260509230557 90 63 1.0 8.0 0.00 0.00 0.00 45 1008.1
20260509230058 90 0 2.0 8.0 0.00 0.00 0.00 44 1008.1
20260509225555 90 64 3.0 7.0 0.00 0.00 0.00 45 1008.2
20260509225054 91 76 2.0 5.0 0.00 0.00 0.00 44 1008.2
20260509224557 91 78 1.0 4.0 0.00 0.00 0.00 45 1008.2
20260509224054 91 78 0.0 4.0 0.00 0.00 0.00 44 1008.1
20260509223558 90 90 1.0 4.0 0.00 0.00 0.00 44 1008.1
20260509223102 91 96 0.0 4.0 0.00 0.00 0.00 44 1008.0
20260509222555 90 0 0.0 5.0 0.00 0.00 0.00 42 1008.0
20260509222053 91 74 1.0 5.0 0.00 0.00 0.00 41 1008.1
20260509221559 91 0 0.0 6.0 0.00 0.00 0.00 44 1008.1
20260509221055 90 355 3.0 6.0 0.00 0.00 0.00 42 1008.0
20260509220555 91 0 0.0 5.0 0.00 0.00 0.00 41 1008.0
20260509220055 90 72 1.0 4.0 0.00 0.00 0.00 42 1008.1
20260509215554 90 59 1.0 4.0 0.00 0.00 0.00 44 1008.1
20260509215055 91 0 0.0 6.0 0.00 0.00 0.00 44 1008.1
20260509214615 90 44 1.0 7.0 0.00 0.00 0.00 45 1008.2
20260509214055 90 61 2.0 7.0 0.00 0.00 0.00 45 1008.2
20260509213555 90 63 3.0 8.0 0.00 0.00 0.00 45 1008.2
20260509213057 90 78 2.0 8.0 0.00 0.00 0.00 45 1008.5
20260509212555 90 63 1.0 5.0 0.00 0.00 0.00 45 1008.5
20260509212054 90 53 1.0 6.0 0.00 0.00 0.00 46 1008.5
20260509211554 90 84 2.0 8.0 0.00 0.00 0.00 47 1008.6
20260509211058 90 50 1.0 8.0 0.00 0.00 0.00 47 1008.6
20260509210555 90 78 2.0 6.0 0.00 0.00 0.00 47 1008.7
20260509210106 91 63 0.0 5.0 0.00 0.00 0.00 48 1008.7
20260509205554 90 92 0.0 7.0 0.00 0.00 0.00 49 1008.8
20260509205054 90 90 2.0 8.0 0.00 0.00 0.00 48 1009.0
20260509204555 90 107 2.0 9.0 0.00 0.00 0.00 49 1009.1
20260509204054 89 0 3.0 9.0 0.00 0.00 0.00 48 1009.1
20260509203558 89 94 3.0 9.0 0.00 0.00 0.00 49 1009.2
20260509203110 89 14 2.0 9.0 0.00 0.00 0.00 48 1009.2
20260509202555 89 69 3.0 9.0 0.00 0.00 0.00 49 1009.2
20260509202054 90 73 2.0 6.0 0.00 0.00 0.00 51 1009.2
20260509201557 89 0 1.0 8.0 0.00 0.00 0.00 51 1009.2
20260509201055 89 59 2.0 8.0 0.00 0.00 0.00 50 1009.2
20260509200558 90 71 1.0 6.0 0.00 0.00 0.00 52 1009.2
20260509200055 89 210 1.0 9.0 0.00 0.00 0.00 51 1009.4
20260509195554 89 43 2.0 9.0 0.00 0.00 0.00 52 1009.5
20260509195056 89 22 2.0 7.0 0.00 0.00 0.00 51 1009.5
20260509194555 89 68 2.0 7.0 0.00 0.00 0.00 51 1009.6
20260509194054 89 60 1.0 4.0 0.00 0.00 0.00 52 1009.6
20260509193555 89 69 1.0 7.0 0.00 0.00 0.00 54 1009.7
20260509193101 88 350 1.0 9.0 0.00 0.00 0.00 55 1009.8
20260509192557 88 80 1.0 9.0 0.00 0.00 0.00 55 1009.8
20260509192054 88 74 3.0 9.0 0.00 0.00 0.00 54 1009.7
20260509191607 88 0 0.0 5.0 0.00 0.00 0.00 55 1009.7
20260509191057 88 348 1.0 6.0 0.00 0.00 0.00 54 1009.8
20260509190557 89 69 2.0 6.0 0.00 0.00 0.00 53 1009.9
20260509190058 88 0 1.0 6.0 0.00 0.00 0.00 59 1009.9
20260509185556 88 0 0.0 7.0 0.00 0.00 0.00 54 1009.9
20260509185055 88 49 1.0 9.0 0.00 0.00 0.00 58 1009.9
20260509184600 87 75 2.0 9.0 0.00 0.00 0.00 59 1010.0
20260509184054 87 61 2.0 8.0 0.00 0.00 0.00 58 1010.0
20260509183555 87 37 0.0 6.0 0.00 0.00 0.00 59 1009.9
20260509183104 87 48 1.0 6.0 0.00 0.00 0.00 57 1010.0
20260509182557 87 306 1.0 4.0 0.00 0.00 0.00 56 1010.0
20260509182054 87 17 1.0 8.0 0.00 0.00 0.00 56 1010.0
20260509181603 86 0 1.0 8.0 0.00 0.00 0.00 57 1010.1
20260509181055 87 16 2.0 7.0 0.00 0.00 0.00 56 1010.2
20260509180554 86 0 2.0 8.0 0.00 0.00 0.00 53 1010.2
20260509180057 86 78 3.0 10.0 0.00 0.00 0.00 58 1010.3
20260509175557 86 113 1.0 10.0 0.00 0.00 0.00 60 1010.3
20260509175054 85 60 2.0 7.0 0.00 0.00 0.00 58 1010.4
20260509174620 85 61 2.0 6.0 0.00 0.00 0.00 60 1010.5
20260509174056 86 11 1.0 5.0 0.00 0.00 0.00 59 1010.6
20260509173554 85 79 3.0 5.0 0.00 0.00 0.00 61 1010.6
20260509173059 85 77 1.0 5.0 0.00 0.00 0.00 58 1010.7
20260509172557 85 107 1.0 9.0 0.00 0.00 0.00 58 1010.7
20260509172055 84 302 2.0 9.0 0.00 0.00 0.00 60 1010.7
20260509171553 84 0 1.0 9.0 0.00 0.00 0.00 59 1010.7
20260509171054 85 5 1.0 5.0 0.00 0.00 0.00 58 1010.6
20260509170554 84 11 1.0 4.0 0.00 0.00 0.00 59 1010.8
20260509170100 85 51 1.0 7.0 0.00 0.00 0.00 58 1010.8
20260509165556 85 270 1.0 7.0 0.00 0.00 0.00 57 1010.8
20260509165058 84 272 1.0 5.0 0.00 0.00 0.00 59 1010.9
20260509164556 84 69 1.0 7.0 0.00 0.00 0.00 60 1011.0
20260509164058 84 334 2.0 7.0 0.00 0.00 0.00 59 1011.1
20260509163558 84 14 1.0 4.0 0.00 0.00 0.00 58 1011.1
20260509163059 84 262 1.0 6.0 0.00 0.00 0.00 59 1011.1
20260509162556 83 350 1.0 6.0 0.00 0.00 0.00 59 1011.2
20260509162057 84 360 1.0 5.0 0.00 0.00 0.00 58 1011.1
20260509161556 83 0 1.0 8.0 0.00 0.00 0.00 59 1011.0
20260509161059 83 0 3.0 8.0 0.00 0.00 0.00 57 1011.0
20260509160556 83 335 1.0 9.0 0.00 0.00 0.00 60 1011.0
20260509160055 82 0 1.0 9.0 0.00 0.00 0.00 61 1011.0
20260509155557 82 349 2.0 9.0 0.00 0.00 0.00 61 1011.0
20260509155055 81 293 2.0 4.0 0.00 0.00 0.00 61 1010.9
20260509154553 82 327 1.0 8.0 0.00 0.00 0.00 61 1011.0
20260509154056 82 0 2.0 8.0 0.00 0.00 0.00 60 1010.9
20260509153555 82 296 2.0 7.0 0.00 0.00 0.00 60 1010.9
20260509153110 82 261 2.0 8.0 0.00 0.00 0.00 60 1010.9
20260509152556 82 0 2.0 8.0 0.00 0.00 0.00 62 1010.9
20260509152056 82 300 1.0 8.0 0.00 0.00 0.00 61 1010.9
20260509151556 81 263 2.0 8.0 0.00 0.00 0.00 63 1011.0
20260509151101 80 275 3.0 7.0 0.00 0.00 0.00 62 1011.0
20260509150556 80 0 2.0 7.0 0.00 0.00 0.00 64 1011.0
20260509150054 80 279 2.0 7.0 0.00 0.00 0.00 64 1011.0
20260509145556 80 275 2.0 7.0 0.00 0.00 0.00 65 1011.0
20260509145055 80 288 1.0 6.0 0.00 0.00 0.00 66 1011.0
20260509144554 79 303 0.0 4.0 0.00 0.00 0.00 69 1011.0
20260509144055 79 296 1.0 7.0 0.00 0.00 0.00 70 1011.0
20260509143555 78 306 1.0 7.0 0.00 0.00 0.00 70 1011.0
20260509143055 77 295 2.0 7.0 0.00 0.00 0.00 72 1011.0
20260509142558 77 10 2.0 5.0 0.00 0.00 0.00 73 1011.0
20260509142056 76 348 0.0 6.0 0.00 0.00 0.00 76 1011.0
20260509141554 76 263 1.0 6.0 0.00 0.00 0.00 78 1011.0
20260509141100 75 274 1.0 6.0 0.00 0.00 0.00 80 1011.0
20260509140556 74 350 0.0 5.0 0.00 0.00 0.00 81 1011.0
20260509140056 74 0 0.0 5.0 0.00 0.00 0.00 82 1011.0
20260509135556 73 355 1.0 5.0 0.00 0.00 0.00 83 1011.1
20260509135056 73 0 0.0 4.0 0.00 0.00 0.00 84 1011.0
20260509134554 72 289 1.0 4.0 0.00 0.00 0.00 85 1011.0
20260509134054 71 346 1.0 4.0 0.00 0.00 0.00 86 1010.9
20260509133558 71 286 1.0 4.0 0.00 0.00 0.00 86 1010.9
20260509133053 71 0 0.0 4.0 0.00 0.00 0.00 87 1010.9
20260509132555 70 0 1.0 4.0 0.00 0.00 0.00 88 1010.8
20260509132058 70 0 0.0 7.0 0.00 0.00 0.00 88 1010.8
20260509131557 69 264 3.0 7.0 0.00 0.00 0.00 89 1010.9
20260509131054 69 266 1.0 4.0 0.00 0.00 0.00 90 1010.8
20260509130556 69 0 0.0 4.0 0.00 0.00 0.00 90 1010.8
20260509130106 69 292 1.0 4.0 0.00 0.00 0.00 90 1010.9
20260509125556 68 0 1.0 4.0 0.00 0.00 0.00 90 1010.9
20260509125055 68 267 1.0 4.0 0.00 0.00 0.00 90 1010.9
20260509124558 68 0 1.0 4.0 0.00 0.00 0.00 90 1010.8
20260509124058 68 274 0.0 4.0 0.00 0.00 0.00 90 1010.7
20260509123555 68 262 0.0 4.0 0.00 0.00 0.00 90 1010.7
20260509123058 68 285 1.0 4.0 0.00 0.00 0.00 90 1010.8
20260509122554 68 283 0.0 4.0 0.00 0.00 0.00 90 1010.6
20260509122054 67 0 2.0 4.0 0.00 0.00 0.00 90 1010.7
20260509121625 68 281 1.0 4.0 0.00 0.00 0.00 90 1010.7
20260509121055 68 279 1.0 4.0 0.00 0.00 0.00 90 1010.7
20260509120557 68 281 1.0 4.0 0.00 0.00 0.00 90 1010.7
20260509120110 68 274 1.0 6.0 0.00 0.00 0.00 90 1010.5
20260509115554 68 277 1.0 6.0 0.00 0.11 0.00 90 1010.5
20260509115054 68 0 1.0 6.0 0.00 0.11 0.00 90 1010.5
20260509114604 68 268 1.0 6.0 0.00 0.11 0.00 90 1010.4
20260509114054 68 287 2.0 4.0 0.00 0.11 0.00 90 1010.5
20260509113553 68 296 1.0 4.0 0.00 0.11 0.00 90 1010.3
20260509113108 67 306 1.0 3.0 0.00 0.11 0.00 90 1010.3
20260509112555 67 306 0.0 2.0 0.00 0.11 0.00 90 1010.2
20260509112055 67 288 0.0 6.0 0.00 0.11 0.00 89 1009.9
20260509111606 67 0 1.0 6.0 0.00 0.11 0.00 89 1010.0
20260509111054 67 288 0.0 3.0 0.00 0.11 0.00 89 1010.0
20260509110558 67 289 1.0 3.0 0.00 0.11 0.00 89 1009.9
20260509110109 67 0 0.0 4.0 0.00 0.11 0.00 89 1009.8
20260509105554 67 0 1.0 4.0 0.00 0.15 0.00 89 1009.6
20260509105055 67 352 0.0 3.0 0.00 0.15 0.00 89 1009.3
20260509104559 67 352 0.0 3.0 0.00 0.15 0.00 89 1009.2
20260509104055 68 0 0.0 3.0 0.00 0.15 0.00 89 1009.2
20260509103556 68 352 0.0 3.0 0.00 0.15 0.00 89 1009.1
20260509103104 68 0 1.0 3.0 0.00 0.15 0.00 89 1009.1
20260509102554 68 360 0.0 1.0 0.00 0.15 0.00 88 1009.2
20260509102054 68 0 0.0 1.0 0.00 0.15 0.00 88 1009.3
20260509101620 68 0 0.0 1.0 0.00 0.15 0.00 88 1009.3
20260509101055 68 0 0.0 1.0 0.00 0.15 0.00 88 1009.3
20260509100555 68 0 0.0 2.0 0.00 0.15 0.00 88 1009.2
20260509100058 68 0 0.0 2.0 0.00 0.15 0.00 88 1009.0
20260509095554 68 80 0.0 2.0 0.00 0.15 0.00 88 1008.9
20260509095054 68 0 0.0 3.0 0.00 0.15 0.00 88 1008.8
20260509094605 68 0 0.0 4.0 0.00 0.15 0.00 88 1008.6
20260509094055 69 0 0.0 8.0 0.00 0.15 0.00 88 1008.5
20260509093557 69 69 3.0 8.0 0.00 0.15 0.00 88 1008.2
20260509093057 69 89 3.0 11.0 0.00 0.15 0.00 87 1008.2
20260509092555 69 87 4.0 11.0 0.00 0.15 0.00 87 1008.1
20260509092058 69 76 1.0 7.0 0.00 0.15 0.00 87 1008.1
20260509091606 69 76 2.0 12.0 0.00 0.15 0.00 87 1008.2
20260509091054 69 58 2.0 12.0 0.00 0.15 0.00 87 1008.1
20260509090557 69 60 4.0 11.0 0.00 0.15 0.00 86 1008.0
20260509090100 70 82 4.0 11.0 0.00 0.15 0.00 86 1008.0
20260509085557 70 74 5.0 11.0 0.00 0.15 0.00 86 1007.9
20260509085054 70 292 5.0 10.0 0.00 0.15 0.00 85 1007.9
20260509084601 69 123 2.0 10.0 0.00 0.15 0.00 85 1007.8
20260509084054 69 5 3.0 10.0 0.00 0.15 0.00 85 1007.7
20260509083553 69 331 2.0 7.0 0.00 0.15 0.00 85 1007.7
20260509083101 69 330 1.0 4.0 0.00 0.15 0.00 86 1007.7
20260509082553 70 0 1.0 9.0 0.00 0.15 0.00 86 1007.5
20260509082055 70 55 0.0 9.0 0.00 0.15 0.00 86 1007.6
20260509081555 69 340 3.0 9.0 0.00 0.15 0.00 86 1008.0
20260509081055 69 360 0.0 8.0 0.00 0.15 0.00 87 1008.1
20260509080558 69 0 1.0 8.0 0.00 0.15 0.00 87 1006.7
20260509080055 69 191 2.0 12.0 0.00 0.15 0.00 87 1006.7
20260509075554 69 360 2.0 15.0 0.00 0.15 0.00 87 1006.7
20260509075054 70 360 5.0 15.0 0.00 0.15 0.00 88 1006.7
20260509074555 70 178 6.0 15.0 0.00 0.15 0.00 88 1006.9
20260509074056 69 360 7.0 15.0 0.00 0.15 0.00 88 1007.3
20260509073554 69 360 5.0 13.0 0.00 0.15 0.00 89 1007.6
20260509073055 69 360 5.0 13.0 0.00 0.15 0.00 89 1008.1
20260509072554 69 360 3.0 11.0 0.00 0.15 0.00 89 1008.2
20260509072053 69 360 4.0 12.0 0.00 0.15 0.00 89 1008.4
20260509071556 69 360 4.0 12.0 0.00 0.15 0.00 89 1008.8
20260509071054 69 360 3.0 12.0 0.00 0.15 0.00 88 1008.8
20260509070554 69 360 3.0 11.0 0.00 0.15 0.00 89 1008.9
20260509070054 69 360 3.0 11.0 0.00 0.15 0.00 88 1008.9
20260509065556 69 360 3.0 11.0 0.00 0.15 0.00 88 1009.1
20260509065054 68 360 3.0 10.0 0.00 0.15 0.00 88 1009.4
20260509064555 68 360 3.0 10.0 0.00 0.15 0.00 88 1009.4
20260509064054 68 360 2.0 8.0 0.00 0.15 0.00 88 1009.4
20260509063554 68 360 2.0 8.0 0.00 0.15 0.00 87 1009.6
20260509063052 68 360 1.0 5.0 0.00 0.15 0.00 87 1009.8
20260509062554 68 360 2.0 5.0 0.00 0.15 0.00 87 1009.9
20260509062054 68 360 1.0 5.0 0.00 0.15 0.00 86 1010.3
20260509061552 68 208 0.0 3.0 0.00 0.15 0.00 86 1010.8
20260509061054 68 360 1.0 3.0 0.00 0.15 0.00 86 1010.8
20260509060553 68 222 0.0 3.0 0.00 0.15 0.00 85 1010.5
20260509060106 68 0 1.0 3.0 0.00 0.15 0.00 85 1010.7
20260509055554 68 360 0.0 3.0 0.00 0.15 0.00 85 1010.4
20260509055055 68 0 0.0 2.0 0.00 0.15 0.00 85 1010.6
20260509054553 68 0 0.0 3.0 0.00 0.15 0.00 84 1010.6
20260509054055 68 0 0.0 3.0 0.00 0.15 0.00 84 1010.4
20260509053554 68 174 0.0 4.0 0.00 0.15 0.00 84 1010.4
20260509053119 69 0 0.0 5.0 0.00 0.15 0.00 84 1010.4
20260509052558 69 0 1.0 5.0 0.00 0.15 0.00 84 1010.2
20260509052055 69 178 1.0 4.0 0.00 0.15 0.00 84 1010.3
20260509051555 69 0 1.0 4.0 0.00 0.15 0.00 83 1010.4
20260509051054 69 0 1.0 4.0 0.00 0.15 0.00 83 1010.3
20260509050554 69 236 1.0 4.0 0.00 0.15 0.00 83 1010.9
20260509050057 70 0 0.0 3.0 0.00 0.15 0.00 83 1011.1
20260509045556 70 0 0.0 4.0 0.00 0.15 0.15 83 1011.4
20260509045054 70 0 1.0 5.0 0.00 0.15 0.15 83 1011.6
20260509044649 70 22 2.0 10.0 0.00 0.15 0.15 83 1012.2
20260509044054 70 0 2.0 10.0 0.00 0.15 0.15 83 1012.0
20260509043554 70 349 4.0 10.0 0.00 0.15 0.15 83 1012.2
20260509043132 70 5 4.0 9.0 0.00 0.15 0.15 83 1012.3
20260509042555 70 167 0.0 1.0 0.00 0.15 0.15 83 1011.3
20260509042056 70 0 0.0 3.0 0.00 0.15 0.15 83 1010.5
20260509041555 70 0 0.0 4.0 0.00 0.15 0.15 83 1010.3
20260509041055 70 0 0.0 4.0 0.00 0.15 0.15 83 1010.5